{"data":{"norad_id":38552,"intl_designator":"2012-035B","name":"METEOSAT-10 (MSG-3)","alt_names":[],"object_type":"PAYLOAD","status":"ACTIVE","operator":null,"country":"EUME","launch_date":"2012-07-05","launch_site_code":"FRGUI","launch_vehicle":null,"mission":null,"orbit_class":"UNKNOWN","rcs_meters":4.3946,"size_class":null,"mass_kg":null,"dimensions":null,"purposes":["comms","earth_obs"],"wikipedia_slug":null,"has_3d_model":false,"image_url":null,"decayed_at":null,"tle_current":{"epoch":"2026-05-25T02:01:55.161408Z","epoch_age_seconds":67393,"freshness":"FRESH","line1":"1 38552U 12035B   26145.08466622 -.00000009  00000+0  00000+0 0  9994","line2":"2 38552   4.6194  61.1269 0001910 325.7927 246.2972  1.00273267 50623","mean_motion":1.00273267,"eccentricity":0.000191,"inclination_deg":4.6194,"raan_deg":61.1269,"arg_perigee_deg":325.7927,"mean_anomaly_deg":246.2972,"bstar":0,"rev_number":5062,"period_min":1436.0756790741,"perigee_km":35778.126123456,"apogee_km":35794.232892362,"semimajor_km":42164.316507909,"source":"CELESTRAK","updated_at":"2026-05-25T13:38:13.912517Z"}}}